Terminal Aerodrome Forecast
Issued by NWS

Home | Current Version | Previous Version | Text Only | Print | Product List | Glossary On
Versions: 1 2 3 4 5 6 7 8 9 10 11 12 13 14 15 16 17 18 19 20
000
FTUS46 KEKA 042335
TAFCEC
TAF
KCEC 042335Z 0500/0524 19009KT P6SM SCT010 SCT120
      TEMPO 0501/0503 SCT006 BKN010
     FM050300 29005KT P6SM SCT006 OVC010
     FM050600 16003KT 3SM BR OVC006=

USA.gov is the U.S. government's official web portal to all federal, state and local government web resources and services.